Flag for Ukraine Weather past 2 weeks in Luhansk, Ukraine

Now
75 °F

Clear.


Feels Like: 77 °F
Forecast: 68 / 90 °F
Wind: 1 mph from Southwest

Location: Rostov-Na-Donu

Current Time: Jul 7, 2015 at 11:55:16 PM

Latest Report: Jul 7, 2015 at 11:00 PM


Visibility: N/A

Pressure: 29.89 "Hg

Humidity: 74%

Dew point: 66 °F

Location of LuhanskLocation

Historic Weather in Luhansk — Graph

°F

Luhansk temperature yesterday

Maximum temperature yesterday: 82 °F (at 4:30 PM)
Minimum temperature yesterday: 68 °F (at 4:30 AM)
Average temperature yesterday: 76 °F

Past Weeks' High & Low Weather Summary

 TemperatureHumidityPressure
High88 °F (Jul 5, 1:30 PM)100% (Jun 29, 5:00 AM)30.21 "Hg (Jun 29, 5:00 AM)
Low63 °F (Jun 28, 4:30 AM)29% (Jul 5, 1:30 PM)29.62 "Hg (Jun 26, 6:30 AM)
Average74 °F68%29.89 "Hg
* Reported Jun 22 10:00 PM — Jul 7 10:30 PM, Luhansk, Weather by CustomWeather, © 2015

Note: Actual official high and low records may vary slightly from our data, if they occured in-between our weather recording intervals... More about our weather records

Advertising

Luhansk weather history for previous 24 hours

 ConditionsComfort  
Time TempWeatherWind HumidityBarometerVisibility
10:30 PM
Tue, Jul 7
75 °FClear.3 mph74%29.92 "HgN/A
10:00 PM77 °FClear.6 mph65%29.89 "HgN/A
9:30 PM81 °FClear.3 mph54%29.89 "HgN/A
9:00 PM81 °FClear.6 mph54%29.89 "HgN/A
8:30 PM81 °FPartly sunny.3 mph54%29.89 "HgN/A
8:00 PM81 °FScattered clouds.6 mph54%29.89 "HgN/A
7:30 PM82 °FScattered clouds.6 mph55%29.89 "HgN/A
7:00 PM86 °FScattered clouds.3 mph46%29.89 "HgN/A
6:30 PM86 °FScattered clouds.6 mph35%29.89 "HgN/A
6:00 PM88 °FScattered clouds.6 mph33%29.89 "HgN/A
5:30 PM88 °FScattered clouds.3 mph35%29.89 "HgN/A
5:00 PM88 °FScattered clouds.3 mph38%29.89 "HgN/A
4:30 PM88 °FScattered clouds.6 mph35%29.89 "HgN/A
4:00 PM88 °FScattered clouds.3 mph35%29.89 "HgN/A
3:30 PM88 °FScattered clouds.3 mph38%29.89 "HgN/A
3:00 PM88 °FScattered clouds.3 mph40%29.89 "HgN/A
2:30 PM88 °FScattered clouds.6 mph43%29.89 "HgN/A
2:00 PM88 °FScattered clouds.3 mph43%29.89 "HgN/A
1:30 PM86 °FScattered clouds.3 mph46%29.89 "HgN/A
1:00 PM86 °FScattered clouds.3 mph49%29.92 "HgN/A
12:30 PM84 °FScattered clouds.3 mph55%29.92 "HgN/A
12:00 PM84 °FScattered clouds.3 mph55%29.92 "HgN/A
11:30 AM82 °FScattered clouds.6 mph55%29.92 "HgN/A
11:00 AM82 °FScattered clouds.6 mph58%29.92 "HgN/A
10:30 AM81 °FPassing clouds.3 mph66%29.92 "HgN/A
10:00 AM81 °FPassing clouds.3 mph62%29.92 "HgN/A
9:30 AM79 °FPassing clouds.3 mph65%29.92 "HgN/A
9:00 AM79 °FPassing clouds.3 mph70%29.92 "HgN/A
8:30 AM77 °FPassing clouds.3 mph74%29.92 "HgN/A
8:00 AM77 °FPassing clouds.3 mph69%29.92 "HgN/A
7:30 AM75 °FPassing clouds.3 mph74%29.92 "HgN/A
7:00 AM75 °FPassing clouds.3 mph74%29.92 "HgN/A
6:30 AM72 °FClear.3 mph78%29.92 "Hg5 mi
5:30 AM70 °FFog.1 mph88%29.89 "Hg4 mi
5:00 AM72 °FFog.3 mph88%29.89 "Hg4 mi
4:30 AM72 °FFog.3 mph88%29.89 "Hg4 mi
4:00 AM72 °FFog.3 mph88%29.89 "Hg3 mi
3:30 AM70 °FFog.3 mph88%29.89 "Hg3 mi
3:00 AM70 °FFog.3 mph94%29.89 "Hg3 mi
2:30 AM70 °FFog.3 mph88%29.89 "Hg3 mi
2:00 AM72 °FClear.3 mph88%29.89 "Hg4 mi
1:30 AM72 °FClear.3 mph88%29.89 "Hg5 mi
1:00 AM73 °FClear.6 mph83%29.89 "HgN/A
12:30 AM73 °FClear.6 mph83%29.89 "HgN/A
12:00 AM73 °FClear.6 mph83%29.89 "HgN/A
11:30 PM
Mon, Jul 6
73 °FClear.6 mph78%29.89 "HgN/A
11:00 PM73 °FClear.6 mph78%29.89 "HgN/A
Weather by CustomWeather, © 2015

See weather overviewHow to use our weather pages